JH4XSY-13 Weather Reports


Display with metric or nautical units.
time (UTC)temp
F
wind
direction
speed
MPH
gust
MPH
rain 1hr
in
rain 24hr
in
rain mn
in
humidity
%
barometer
mb
20260504193804 54 0.0 0.0 0.00 0.00 0.00 46
20260504190806 54 0.0 0.0 0.00 0.00 0.00 44
20260504183803 55 0.0 0.0 0.00 0.00 0.00 43
20260504180806 56 0.0 0.0 0.00 0.00 0.00 42
20260504173803 57 0.0 0.0 0.00 0.00 0.00 41
20260504170804 58 0.0 0.0 0.00 0.00 0.00 41
20260504150804 62 0.0 0.0 0.00 0.00 0.00 39
20260504140804 64 0.0 0.0 0.00 0.00 0.00 39
20260504130807 65 0.0 0.0 0.00 0.00 0.00 47
20260504080806 75 0.0 0.0 0.00 0.00 0.00 50
20260504043810 82 0.0 0.0 0.00 0.00 0.00 46
20260504040810 82 0.0 0.0 0.00 0.00 0.00 47
20260504033809 80 0.0 0.0 0.00 0.00 0.00 54
20260504030809 78 0.0 0.0 0.00 0.00 0.00 60
20260504023806 76 0.0 0.0 0.00 0.00 0.00 66
20260504020810 73 0.0 0.0 0.00 0.00 0.00 72
20260504013809 71 0.0 0.0 0.00 0.00 0.00 79
20260504010809 70 0.0 0.0 0.00 0.00 0.00 82
20260504003806 69 0.0 0.0 0.00 0.00 0.00 83
20260504000804 69 0.0 0.0 0.00 0.00 0.00 83
20260503233806 69 0.0 0.0 0.00 0.00 0.00 82
20260503230805 70 0.0 0.0 0.00 0.00 0.00 82
20260503223804 72 0.0 0.0 0.00 0.00 0.00 83
20260503220805 72 0.0 0.0 0.00 0.00 0.00 85
20260503213804 72 0.0 0.0 0.00 0.00 0.00 85
20260503210806 72 0.0 0.0 0.00 0.00 0.00 83
20260503203804 73 0.0 0.0 0.00 0.00 0.00 80
20260503200806 71 0.0 0.0 0.00 0.00 0.00 81